Preview of NWS' New Version of Forecast
This preview is not operational and should not be used for support decisions.

Regional Weather Roundup (RWR)

Issued by National Weather Service (NWS)

                            
000
ASUS45 KBOI 252110
RWRID 

IDAHO REGIONAL WEATHER ROUNDUP
NATIONAL WEATHER SERVICE BOISE ID
300 PM MDT TUE JUN 25 2019

NOTE: "FAIR" INDICATES FEW OR NO CLOUDS BELOW 12000 FEET
WITH NO SIGNIFICANT WEATHER AND/OR OBSTRUCTIONS TO VISIBILITY

IDZ012-014-252200-
SOUTHWEST IDAHO

  
CITY           SKY/WX    TMP DP  RH WIND       PRES   REMARKS
BOISE          PTSUNNY   80  41  24 NW10G16   29.81S                  
CALDWELL       PTSUNNY   81  45  28 VRB7      29.79F                  
MOUNTAIN HOME  PTSUNNY   81  36  20 NW8       29.78F                  
$$

IDZ016-017-252200-
SOUTHCENTRAL IDAHO

  
CITY           SKY/WX    TMP DP  RH WIND       PRES   REMARKS
BURLEY         MOSUNNY   79  38  22 NW7       29.84F                  
JEROME         SUNNY     82  40  22 NW10G21   29.85F                  
TWIN FALLS     SUNNY     80  39  23 NW8       29.85F                  
$$

IDZ019>023-252200-
SOUTHEAST IDAHO

  
CITY           SKY/WX    TMP DP  RH WIND       PRES   REMARKS
IDAHO FALLS    MOSUNNY   79  36  21 SW17G30   29.88F                  
POCATELLO      PTSUNNY   79  35  20 W16       29.88F                  
REXBURG        PTSUNNY   77  42  28 SW10G23   29.88S                  
$$

IDZ006-010-011-018-031-032-252200-
CENTRAL IDAHO MOUNTAINS

  
CITY           SKY/WX    TMP DP  RH WIND       PRES   REMARKS
MCCALL         CLOUDY    68  36  30 S18       29.89R                  
HAILEY         MOSUNNY   73  43  33 W9        29.93F                  
STANLEY          N/A     68  33  27 S12G20    29.95R                  
SALMON         CLOUDY    63  45  51 N3        29.90F                  
CHALLIS        LGT RAIN  65  45  48 CALM      29.88F                  
$$

IDZ002-004-006-007-026-252200-
NORTHERN IDAHO

  
CITY           SKY/WX    TMP DP  RH WIND       PRES   REMARKS
LEWISTON       SUNNY     75  43  31 E6        29.82F                  
LOWELL           N/A     73  51  46 VRB3      29.80F                  
COEUR D'ALENE  PTSUNNY   70  34  26 VRB3      29.86F                  
MULLAN PASS      N/A    N/A N/A N/A MISG      29.97S                  
$$